timestamp,surface_pressure_avg,surface_temp_avg,battery_voltage,lat,long
2024-05-07 00:09:00+00:00,334.3496,3.0,12.41,47.84626,-54.09684
2024-05-07 00:19:00+00:00,329.858,3.0,12.41,47.84626,-54.09684
2024-05-07 00:29:00+00:00,326.1764,3.0,12.41,47.84626,-54.09684
2024-05-07 00:39:00+00:00,315.3247,3.0,12.41,47.84626,-54.09684
2024-05-07 00:49:00+00:00,304.7563,3.0,12.41,47.84626,-54.09684
2024-05-07 00:59:00+00:00,297.5013,3.0,12.41,47.84626,-54.09684
2024-05-07 01:09:00+00:00,287.6797,3.0,12.41,47.84626,-54.09684
2024-05-07 01:19:01+00:00,274.183,3.0,12.41,47.84626,-54.09684
2024-05-07 01:29:01+00:00,264.9164,3.0,12.41,47.84626,-54.09684
2024-05-07 01:39:01+00:00,260.5031,3.0,12.41,47.84626,-54.09684
2024-05-07 01:49:01+00:00,250.8048,3.0,12.41,47.84626,-54.09684
2024-05-07 01:59:01+00:00,237.6081,3.0,12.41,47.84626,-54.09684
2024-05-07 02:09:01+00:00,232.2531,3.0,12.41,47.84626,-54.09684
2024-05-07 02:19:01+00:00,228.6698,3.0,12.41,47.84626,-54.09684
2024-05-07 02:29:01+00:00,217.0131,3.0,12.41,47.84626,-54.09684
2024-05-07 02:39:01+00:00,204.0564,3.0,12.41,47.84626,-54.09684
2024-05-07 02:49:01+00:00,197.4865,3.0,12.41,47.84626,-54.09684
2024-05-07 02:59:01+00:00,191.5415,3.0,12.41,47.84626,-54.09684
2024-05-07 03:09:01+00:00,184.8881,3.0,12.41,47.84626,-54.09684
2024-05-07 03:19:00+00:00,179.0431,3.0,12.41,47.84626,-54.09684
2024-05-07 03:29:00+00:00,176.3264,3.0,12.41,47.84626,-54.09684
2024-05-07 03:39:00+00:00,172.2098,3.0,12.41,47.84626,-54.09684
2024-05-07 03:49:00+00:00,165.4432,3.0,12.41,47.84626,-54.09684
2024-05-07 03:59:00+00:00,163.2765,3.0,12.41,47.84626,-54.09684
2024-05-07 04:09:00+00:00,160.9415,3.0,12.41,47.84626,-54.09684
2024-05-07 04:19:00+00:00,157.9965,3.0,12.33,47.84626,-54.09684
2024-05-07 04:29:00+00:00,159.2065,2.99,12.33,47.84626,-54.09684
2024-05-07 04:39:00+00:00,161.9515,2.99,12.33,47.84626,-54.09684
2024-05-07 04:49:00+00:00,161.5631,3.0,12.33,47.84626,-54.09684
2024-05-07 04:59:00+00:00,160.4348,3.0,12.33,47.84626,-54.09684
2024-05-07 05:09:00+00:00,164.0948,3.0,12.33,47.84626,-54.09684
2024-05-07 05:19:00+00:00,166.4931,3.0,12.33,47.84626,-54.09684
2024-05-07 05:29:00+00:00,166.1565,3.0,12.33,47.84626,-54.09684
2024-05-07 05:39:00+00:00,168.1248,3.0,12.33,47.84626,-54.09684
2024-05-07 05:49:00+00:00,172.5582,3.0,12.33,47.84626,-54.09684
2024-05-07 05:59:00+00:00,174.6165,3.0,12.33,47.84626,-54.09684
2024-05-07 06:09:00+00:00,176.6565,3.0,12.33,47.84626,-54.09684
2024-05-07 06:19:00+00:00,184.9648,3.0,12.33,47.84626,-54.09684
2024-05-07 06:29:00+00:00,193.2248,3.0,12.33,47.84626,-54.09684
2024-05-07 06:39:00+00:00,195.7198,3.03,12.33,47.84626,-54.09684
2024-05-07 06:49:00+00:00,198.0048,3.07,12.33,47.84626,-54.09684
2024-05-07 06:59:00+00:00,207.5814,3.08,12.33,47.84626,-54.09684
2024-05-07 07:09:00+00:00,215.4848,3.09,12.33,47.84626,-54.09684
2024-05-07 07:19:00+00:00,219.5481,3.09,12.33,47.84626,-54.09684
2024-05-07 07:29:00+00:00,227.3415,3.1,12.33,47.84626,-54.09684
2024-05-07 07:39:00+00:00,231.6598,3.1,12.33,47.84626,-54.09684
2024-05-07 07:49:00+00:00,233.4497,3.1,12.33,47.84626,-54.09684
2024-05-07 07:59:00+00:00,242.5348,3.1,12.33,47.84626,-54.09684
2024-05-07 08:09:00+00:00,254.8681,3.1,12.33,47.84626,-54.09684
2024-05-07 08:19:00+00:00,258.4264,3.1,12.33,47.84626,-54.09684
2024-05-07 08:29:00+00:00,264.7781,3.1,12.33,47.84626,-54.09684
2024-05-07 08:39:00+00:00,277.9714,3.1,12.33,47.84626,-54.09684
2024-05-07 08:49:00+00:00,287.6947,3.1,12.33,47.84626,-54.09684
2024-05-07 08:59:00+00:00,291.968,3.1,12.33,47.84626,-54.09684
2024-05-07 09:09:00+00:00,301.2963,3.1,12.33,47.84626,-54.09684
2024-05-07 09:19:00+00:00,315.1063,3.1,12.33,47.84626,-54.09684
2024-05-07 09:29:00+00:00,319.453,3.1,12.33,47.84626,-54.09684
2024-05-07 09:39:00+00:00,321.428,3.1,12.33,47.84626,-54.09684
2024-05-07 09:49:00+00:00,331.0647,3.1,12.33,47.84626,-54.09684
2024-05-07 09:59:00+00:00,341.3112,3.1,12.33,47.84626,-54.09684
2024-05-07 10:09:00+00:00,342.5646,3.1,12.33,47.84626,-54.09684
2024-05-07 10:19:00+00:00,345.4412,3.1,12.33,47.84626,-54.09684
2024-05-07 10:29:00+00:00,352.8929,3.1,12.33,47.84626,-54.09684
2024-05-07 10:39:00+00:00,356.0479,3.1,12.33,47.84626,-54.09684
2024-05-07 10:49:00+00:00,349.9597,3.1,12.33,47.84626,-54.09684
2024-05-07 10:59:00+00:00,354.9997,3.1,12.33,47.84626,-54.09684
2024-05-07 11:09:00+00:00,359.1046,3.1,12.33,47.84626,-54.09684
2024-05-07 11:19:00+00:00,353.1413,3.1,12.41,47.84626,-54.09684
2024-05-07 11:29:00+00:00,352.0413,3.1,12.41,47.84626,-54.09684
2024-05-07 11:39:00+00:00,349.93800000000016,3.1,12.41,47.84626,-54.09684
2024-05-07 11:49:00+00:00,345.9746,3.1,12.41,47.84626,-54.09684
2024-05-07 11:59:00+00:00,341.2897,3.1,12.41,47.84626,-54.09684
2024-05-07 12:09:00+00:00,342.0312,3.1,12.41,47.84626,-54.09684
2024-05-07 12:19:00+00:00,336.4996,3.1,12.65,47.84626,-54.09684
2024-05-07 12:29:00+00:00,330.5197,3.1,12.65,47.84626,-54.09684
2024-05-07 12:39:00+00:00,331.3413,3.1,12.65,47.84626,-54.09684
2024-05-07 12:49:00+00:00,326.373,3.1,12.65,47.84626,-54.09684
2024-05-07 12:59:00+00:00,315.9397,3.1,12.65,47.84626,-54.09684
2024-05-07 13:09:00+00:00,309.9746,3.1,12.65,47.84626,-54.09684
2024-05-07 13:19:00+00:00,305.283,3.1,12.65,47.84626,-54.09684
2024-05-07 13:29:00+00:00,293.7947,3.1,12.65,47.84626,-54.09684
2024-05-07 13:39:00+00:00,281.5298,3.13,12.65,47.84626,-54.09684
2024-05-07 13:49:00+00:00,272.8897,3.15,12.65,47.84626,-54.09684
2024-05-07 13:59:00+00:00,263.8164,3.18,12.65,47.84626,-54.09684
2024-05-07 14:09:00+00:00,253.2464,3.2,12.65,47.84626,-54.09684
2024-05-07 14:19:00+00:00,245.4947,3.2,12.81,47.84626,-54.09684
2024-05-07 14:29:00+00:00,238.4814,3.2,12.81,47.84626,-54.09684
2024-05-07 14:39:00+00:00,228.0364,3.2,12.81,47.84626,-54.09684
2024-05-07 14:49:00+00:00,218.7665,3.2,12.81,47.84626,-54.09684
2024-05-07 14:59:00+00:00,213.6448,3.2,12.81,47.84626,-54.09684
2024-05-07 15:09:00+00:00,206.5481,3.2,12.81,47.84626,-54.09684
2024-05-07 15:19:00+00:00,197.8031,3.23,13.92,47.84626,-54.09684
2024-05-07 15:29:00+00:00,192.8198,3.26,13.92,47.84626,-54.09684
2024-05-07 15:39:00+00:00,189.2848,3.26,13.92,47.84626,-54.09684
2024-05-07 15:49:00+00:00,185.1031,3.29,13.92,47.84626,-54.09684
2024-05-07 15:59:00+00:00,180.6447,3.3,13.92,47.84626,-54.09684
2024-05-07 16:09:00+00:00,182.4099,3.4,13.92,47.84626,-54.09684
2024-05-07 16:19:00+00:00,183.1364,3.53,12.97,47.84626,-54.09684
2024-05-07 16:29:00+00:00,177.7732,3.69,12.97,47.84626,-54.09684
2024-05-07 16:39:00+00:00,177.0532,3.8,12.97,47.84626,-54.09684
2024-05-07 16:49:00+00:00,181.3248,3.9,12.97,47.84626,-54.09684
2024-05-07 16:59:00+00:00,181.7681,3.97,12.97,47.84626,-54.09684
2024-05-07 17:09:00+00:00,178.1531,4.0,12.97,47.84626,-54.09684
2024-05-07 17:19:00+00:00,179.9931,4.02,13.21,47.84626,-54.09684
2024-05-07 17:29:00+00:00,185.7215,4.08,13.21,47.84626,-54.09684
2024-05-07 17:39:00+00:00,188.2614,4.1,13.21,47.84626,-54.09684
2024-05-07 17:49:00+00:00,190.5664,4.1,13.21,47.84626,-54.09684
2024-05-07 17:59:00+00:00,195.8347,4.1,13.21,47.84626,-54.09684
2024-05-07 18:09:00+00:00,202.4948,4.1,13.21,47.84626,-54.09684
2024-05-07 18:19:00+00:00,208.4464,4.1,12.89,47.84626,-54.09684
2024-05-07 18:29:00+00:00,213.1214,4.1,12.89,47.84626,-54.09684
2024-05-07 18:39:00+00:00,217.6114,4.09,12.89,47.84626,-54.09684
2024-05-07 18:49:00+00:00,221.6448,4.05,12.89,47.84626,-54.09684
2024-05-07 18:59:00+00:00,227.4648,4.0,12.89,47.84626,-54.09684
2024-05-07 19:09:00+00:00,235.1964,4.0,12.89,47.84626,-54.09684
2024-05-07 19:19:01+00:00,239.1881,3.93,12.73,47.84626,-54.09684
2024-05-07 19:29:01+00:00,242.6131,3.9,12.73,47.84626,-54.09684
2024-05-07 19:39:01+00:00,250.7514,3.9,12.73,47.84626,-54.09684
2024-05-07 19:49:01+00:00,259.0398,3.89,12.73,47.84626,-54.09684
2024-05-07 19:59:01+00:00,261.4814,3.89,12.73,47.84626,-54.09684
2024-05-07 20:09:01+00:00,265.4098,3.81,12.73,47.84626,-54.09684
2024-05-07 20:19:00+00:00,276.298,3.8,12.65,47.84626,-54.09684
2024-05-07 20:29:00+00:00,283.3647,3.8,12.65,47.84626,-54.09684
2024-05-07 20:39:00+00:00,287.608,3.8,12.65,47.84626,-54.09684
2024-05-07 20:49:00+00:00,297.2697,3.7,12.65,47.84626,-54.09684
2024-05-07 20:59:00+00:00,309.6197,3.7,12.65,47.84626,-54.09684
2024-05-07 21:09:00+00:00,320.4997,3.66,12.65,47.84626,-54.09684
2024-05-07 21:19:00+00:00,331.0197,3.6,12.65,47.84626,-54.09684
2024-05-07 21:29:00+00:00,342.6813,3.6,12.65,47.84626,-54.09684
2024-05-07 21:39:00+00:00,351.9663,3.51,12.65,47.84626,-54.09684
2024-05-07 21:49:00+00:00,359.9464,3.5,12.65,47.84626,-54.09684
2024-05-07 21:59:00+00:00,366.3729,3.5,12.65,47.84626,-54.09684
2024-05-07 22:09:00+00:00,370.9014,3.5,12.65,47.84626,-54.09684
2024-05-07 22:19:01+00:00,374.4012,3.5,12.49,47.84626,-54.09684
2024-05-07 22:29:01+00:00,382.8429,3.5,12.49,47.84626,-54.09684
2024-05-07 22:39:01+00:00,389.1012,3.5,12.49,47.84626,-54.09684
2024-05-07 22:49:01+00:00,388.4828,3.57,12.49,47.84626,-54.09684
2024-05-07 22:59:01+00:00,389.3829,3.6,12.49,47.84626,-54.09684
2024-05-07 23:09:01+00:00,395.3912,3.6,12.49,47.84626,-54.09684
2024-05-07 23:19:00+00:00,394.4462,3.6,12.41,47.84626,-54.09684
2024-05-07 23:29:00+00:00,389.193,3.6,12.41,47.84626,-54.09684
2024-05-07 23:39:00+00:00,391.833,3.6,12.41,47.84626,-54.09684
2024-05-07 23:49:00+00:00,394.838,3.6,12.41,47.84626,-54.09684
2024-05-07 23:59:00+00:00,388.67800000000005,3.6,12.41,47.84626,-54.09684
